GW4194 Weather Reports


Display with metric or nautical units.
time (UTC)temp
F
wind
direction
speed
MPH
gust
MPH
rain 1hr
in
rain 24hr
in
rain mn
in
humidity
%
barometer
mb
20260503054557 36 0 0.0 0.0 0.00 0.00 0.00 89 1020.0
20260503053058 36 0 0.0 0.0 0.00 0.00 0.00 89 1019.9
20260503051600 36 0 0.0 0.0 0.00 0.00 0.00 89 1019.9
20260503050058 37 0 0.0 0.0 0.00 0.00 0.00 89 1019.8
20260503044559 37 0 0.0 0.0 0.00 0.00 0.00 88 1019.8
20260503043101 38 0 0.0 0.0 0.00 0.00 0.00 87 1019.7
20260503041558 38 0 0.0 0.0 0.00 0.00 0.00 86 1019.7
20260503040059 39 0 0.0 0.0 0.00 0.00 0.00 85 1019.7
20260503034558 39 0 0.0 0.0 0.00 0.00 0.00 84 1019.6
20260503033057 40 0 0.0 0.0 0.00 0.00 0.00 83 1019.5
20260503031610 41 0 0.0 0.0 0.00 0.00 0.00 80 1019.3
20260503030058 42 0 0.0 0.0 0.00 0.00 0.00 77 1019.2
20260503024604 43 0 0.0 0.0 0.00 0.00 0.00 76 1019.1
20260503023058 44 0 0.0 0.0 0.00 0.00 0.00 71 1019.0
20260503021555 44 0 0.0 0.0 0.00 0.00 0.00 74 1018.8
20260503020101 45 0 0.0 1.0 0.00 0.00 0.00 73 1018.7
20260503014559 45 0 0.0 0.0 0.00 0.00 0.00 71 1018.4
20260503013101 46 0 0.0 0.0 0.00 0.00 0.00 68 1018.3
20260503011607 46 0 0.0 0.0 0.00 0.00 0.00 69 1018.1
20260503004559 48 0 0.0 0.0 0.00 0.00 0.00 62 1017.8
20260503003104 49 0 0.0 0.0 0.00 0.00 0.00 53 1017.6
20260503001559 51 0 0.0 0.0 0.00 0.00 0.00 51 1017.3
20260503000111 51 0 0.0 0.0 0.00 0.00 0.00 51 1017.2
20260502234559 52 0 0.0 3.0 0.00 0.00 0.00 49 1017.1
20260502233106 52 296 0.0 4.0 0.00 0.00 0.00 48 1017.0
20260502231618 52 297 0.0 6.0 0.00 0.00 0.00 47 1016.9
20260502230058 53 302 1.0 5.0 0.00 0.00 0.00 45 1016.8
20260502224600 53 0 2.0 9.0 0.00 0.00 0.00 46 1016.7
20260502223100 53 326 0.0 10.0 0.00 0.00 0.00 45 1016.6
20260502221559 54 47 1.0 9.0 0.00 0.00 0.00 46 1016.6
20260502220056 54 340 2.0 8.0 0.00 0.00 0.00 44 1016.5
20260502214559 54 209 1.0 7.0 0.00 0.00 0.00 44 1016.6
20260502213057 54 0 2.0 9.0 0.00 0.00 0.00 46 1016.4
20260502211603 54 13 1.0 8.0 0.00 0.00 0.00 47 1016.4
20260502210057 54 276 3.0 9.0 0.00 0.00 0.00 43 1016.4
20260502204604 54 328 2.0 7.0 0.00 0.00 0.00 45 1016.3
20260502203058 54 313 1.0 4.0 0.00 0.00 0.00 47 1016.5
20260502201605 53 323 1.0 6.0 0.00 0.00 0.00 46 1016.5
20260502200059 54 251 4.0 11.0 0.00 0.00 0.00 42 1016.6
20260502194621 54 16 3.0 7.0 0.00 0.00 0.00 48 1016.7
20260502193108 54 0 1.0 8.0 0.00 0.00 0.00 49 1016.9
20260502191606 54 282 2.0 7.0 0.00 0.00 0.00 45 1017.0
20260502190057 54 71 1.0 6.0 0.00 0.00 0.00 45 1017.0
20260502184608 54 0 1.0 5.0 0.00 0.00 0.00 46 1017.3
20260502183055 52 5 1.0 4.0 0.00 0.00 0.00 50 1017.6
20260502181559 53 337 1.0 8.0 0.00 0.00 0.00 46 1017.3
20260502163058 54 348 1.0 5.0 0.00 0.00 0.00 47 1017.9
20260502161623 53 45 0.0 8.0 0.00 0.00 0.00 49 1018.0
20260502160133 53 18 2.0 5.0 0.00 0.00 0.00 46 1018.1
20260502151559 52 0 2.0 4.0 0.00 0.00 0.00 56 1018.4
20260502130121 41 0 0.0 0.0 0.00 0.00 0.00 93 1018.6
20260502123125 38 0 0.0 0.0 0.00 0.00 0.00 93 1018.8
20260502121604 37 0 0.0 0.0 0.00 0.00 0.00 93 1018.4
20260502120137 37 0 0.0 0.0 0.00 0.00 0.00 93 1018.4
20260502114558 37 0 0.0 0.0 0.00 0.00 0.00 93 1018.3
20260502113100 36 0 0.0 0.0 0.00 0.00 0.00 93 1018.3
20260502111558 36 0 0.0 0.0 0.00 0.00 0.00 93 1018.2
20260502110057 36 0 0.0 0.0 0.00 0.00 0.00 93 1018.1
20260502104557 36 0 0.0 0.0 0.00 0.00 0.00 92 1017.9
20260502103058 36 0 0.0 0.0 0.00 0.00 0.00 92 1017.9
20260502101605 36 0 0.0 0.0 0.00 0.00 0.00 92 1017.9
20260502070057 38 0 0.0 0.0 0.00 0.00 0.00 90 1017.8
20260502064558 38 0 0.0 0.0 0.00 0.00 0.00 90 1017.8
20260502063102 38 0 0.0 0.0 0.00 0.00 0.00 90 1018.0